Tracking 28126 objects as of 2-Oct-2023
HD Live streaming from Space Station
objects crossing your sky now

OPS 3367 A

Track OPS 3367 A now!
10-day predictions
OPS 3367 A is classified as:


NORAD ID: 734
Int'l Code: 1964-002B
Perigee: 791.4 km
Apogee: 812.3 km
Inclination: 99.0 °
Period: 100.8 minutes
Semi major axis: 7172 km
RCS: 0.3359 m2 (medium)
Launch date: January 19, 1964
Source: United States (US)
Launch site: AIR FORCE WESTERN TEST RANGE (AFWTR)
Your satellite tracking list
Your tracking list is empty




NASA's NSSDC Master Catalog

Two Line Element Set (TLE):
1 00734U 64002B   23274.69250000  .00000209  00000-0  10097-3 0  9997
2 00734  99.0170 158.4475 0014547 173.8069 186.3294 14.29112189107404
Source of the keplerian elements: AFSPC